パンスターズ彗星

448P/PanSTARRS (2022)

English version
Home page
Updated on December 30, 2022

---------------------------------------------------------------------

・ プロフィール

符号 448P/2022 Q1
検出日 2022年8月23日
検出光度 21.0等
検出者 Erwin Schwab (Egelsbach, Germany)

・ 写真集

・ 軌道要素

Epoch 2022 Sept. 18.0 TT = JDT 2459840.5                                        
T 2022 Sept. 6.59611 TT                                 Rudenko                 
q   2.1120578            (2000.0)            P               Q                  
n   0.14211806     Peri.  218.73923     +0.93230245     -0.35562615             
a   3.6366643      Node   161.75757     +0.36144123     +0.90948060             
e   0.4192321      Incl.   12.15177     +0.01312917     +0.21534876             
P   6.94                                                                        
From 102 observations 2008 Oct. 1-2022 Aug. 24, mean residual 0".6.             

・ 光度変化

        m1 = 16.0 + 5 logΔ + 10.0 log r

---------------------------------------------------------------------

軌道要素はM.P.E.C. 2022-Q153に掲載されたものです。
光度グラフはComet for Windowsで作成したものです。

---------------------------------------------------------------------

Copyright(C) Seiichi Yoshida (comet@aerith.net). All rights reserved.